Погода в Рыбинске

Погода в Рыбинске : погода сейчас, прогноз погоды и архив. Всё, что Вы хотите узнать о погоде в Рыбинске!

Хотите узнать прогноз погоды в Рыбинске? Тогда Вам сюда: Погода в Рыбинске

Поиск расширенной информации на нашем сайте:

Полезная информация:

Другие новости

Новости СМИ2

Главная страница сайта

Новости сайта

03.07.2017

Напоминаем, что на нашем специализированном сайте Метеоцентр.Азия вы можете получить высокодетализированные автоматические прогнозы погоды по пунктам России, СНГ и мира в авиационном формате (включающие направление и скорость ветра, видимость, явления погоды, количество и форму облачности, нижнюю и верхнюю границу облачности).

Рекомендуем:

Погода в Рыбинске - сегодня

Время (UTC), дата Ветер
(°,м/с) 
Видим.   Явления Облачность Т
(°С)
Тd
(°С)
f(%) Тe
(°С)
Pmin
(гПа)
dP
(гПа)
Po
(мм)
O2
(г/м3)
Тmin Tmax R s Состояние
почвы
21 18.05.19 010 (С) 10 км    ясно 
+11.6 +2.9 55 +13  1017.6  1.8  754  291           
00 19.05.19 010 (С) 10 км    ясно 
+9 +2.1 62 +10  1018.2  0.5  754  294           
03 19.05.19 050 (СВ) 10 км    ясно 
+9.1 +2.2 62 +10  1018.9  0.8  755  294  +7.2        влажная 
06 19.05.19 010 (С) 10 км    ясно 
+11.3 +0.7 48 +12  1019.9  0.9  755  292           
09 19.05.19 330 (СЗ) 10 км    ясно 
+12.1 +1.3 48 +12  1020.1  0.3  755  291           
12 19.05.19 340 (С) 10 км    3/0 верхняя 
[Ci fib]
+14.1 +0.6 40 +14  1020  755  289           
15 19.05.19 350 (С) 10 км    ясно 
+15.1 +0 36 +16  1020  0.1  755  288    +15.8       
18 19.05.19 350 (С) 10 км    ясно 
+10.3 +3.1 61 +11  1020.3  -0.1  756  293           
21 19.05.19 тихо ()   10 км    ясно 
+6.7 +0.6 65 +7  1021.3  0.8  756  297           
00 20.05.19 тихо ()   10 км    ясно 
+2.5 +0.4 86 +3  1022.9  1.4  757  302           
03 20.05.19 тихо ()   10 км    3/0 верхняя 
[Ci fib]
+9.9 +2.5 60 +10  1023.1  0.6  758  294  +2.1        влажная 
06 20.05.19 320 (СЗ) 10 км    4/0 верхняя 
[Ci fib]
+14 +1.3 42 +15  1023.1  0.2  758  290           
09 20.05.19 330 (СЗ) 10 км    3/0 верхняя 
[Ci fib]
+15.2 -1.1 33 +15  1022.7  -0.3  758  289           
12 20.05.19 350 (С) 10 км    3/0 верхняя 
[Ci fib]
+16.8 +0.3 33 +18  1022  -0.6  757  287           
15 20.05.19 310 (СЗ) 10 км    ясно 
+17.5 -2.2 26 +19  1021  -1  756  287    +17.5       
18 20.05.19 тихо ()   10 км    3/0 верхняя 
[Ci fib]
+10.6 +2.4 57 +11  1020.9  -0.4  756  293           
21 20.05.19 тихо ()   10 км    3/0 верхняя 
[Ci sp]
+6.4 +2.7 77 +6  1021.4  0.3  756  297           
00 21.05.19 150 (ЮВ) 10 км    8/8 300 м 
[Sc]
+7.8 +2.4 69 +9  1021.5  0.1  756  296           
03 21.05.19 150 (ЮВ) 4000 м  слаб. ливневой дождь  10/10 300 м кучево-дожд. 
[Cb cap]
+8.3 +3.5 72 +9  1021.7  0.2  757  295  +6.3    0.0    влажная 
06 21.05.19 110 (В) 4000 м  слаб. ливневой дождь  10/10 300 м кучево-дожд. 
[Cb cap]
+10 +7.4 84 +11  1021.2  -0.3  756  293           
09 21.05.19 120 (ЮВ) 10 км  {ливн. осадки}  9/9 300 м 
[Sc diur, vesp]
+14.3 +6.9 61 +15  1019.6  -1.4  755  288           
12 21.05.19 120 (ЮВ) 10 км  {ливн. осадки}  6/0 верхняя 
[Ci ing]
+18 +7.4 50 +19  1017.2  -2.2  754  284           
15 21.05.19 100 (В) 10 км    10/10 2000 м 
[Ns]
+17.5 +9.1 58 +18  1015  -2.2  752  283    +19.9     
18 21.05.19 120 (ЮВ) 4000 м  слаб. ливневой дождь  10/10 300 м кучево-дожд. 
[Cb cap]
+14.7 +11.1 79 +19  1014.5  -0.6  752  285           
21 21.05.19 030 (СВ) 10 км  {ливн. осадки}  10/10 300 м 
[Sc]
+13.2 +11.4 89 +17  1014.1  -0.5  751  287           
Время (UTC), дата Ветер
(°,м/с) 
Видим.   Явления Облачность Т
(°С)
Тd
(°С)
f(%) Тe
(°С)
Pmin
(гПа)
dP
(гПа)
Po
(мм)
O2
(г/м3)
Тmin Tmax R s Состояние
почвы

Для получения пояснительной информации подведите курсор к названию столбца.

ПОГОДА в Рыбинске - архив

Всё, что Вы хотите узнать о погоде в Рыбинске - удобно и подробно!

Выберите нужную дату (начиная с 1 января 2018* года) и нажмите кнопку "Найти".
Будут отображены архивные сводки погоды по пункту Рыбинск, начиная с указанной даты.


Отображать данные в формате CSV (для использования в таблицах Excel)


Внимание! Наш архив погоды предназначен исключительно для личного некоммерческого использования в познавательных целях. Если Вам необходимы официальные справки о состоянии погоды (для производственных, юридических, коммерческих и т.п. целей), обращайтесь в органы Росгидромета.

*Примечание: данная дата относится к архиву по метеостанциям СССР (Россия, СНГ, Балтия).
Архив по метеостанциям Зарубежной Европы и Азии (кроме Китая) хранится 10 дней, по другим регионам земного шара (Китай, Африка, Америка, Австралия, Океания) - 1 день.

Рыбинск - район местоположения метеостанции


Название, широта, долгота, высота метеостанции:
Рыбинск 58.1°ш. 38.7°д. 105 м над ур. моря [Российская Федерация]

Дополнительная информация

В oтличие oт бoльшинства пoгoдных сайтoв мы публикуем пoдрoбную метеoинфoрмацию в детальнoм прoфессиoнальнoм фoрмате.

Характеристики температуры и влажнoсти вoздуха измеряются на высoте 2 м в тени вдали oт зданий и деревьев.
Скoрoсть ветра измеряется на высoте 10 м (на урoвне рoста челoвека скoрoсть ветра ниже в 1.5-2 раза). Если метеoстанция нахoдится в гoрoде или в лесу, тo скoрoсть ветра занижена на 2-4 м/с пo сравнению с oткрытым местoм. Скoрoсть ветра над акватoриями крупных рек и oзёр, а также на вершинах хoлмoв на 2-5 м/с выше, чем в oбычных услoвиях.
Атмoсфернoе давление в разных тoчках местнoсти мoжет значительнo oтличаться oт давления на метеoстанции, в зависимoсти oт услoвий рельефа (при пoдъёме на 10 м давление пoнижается примернo на 1 мм рт.ст.).